YAOGAN-21

Last updated on Thu Jul 03 2025 00:02:30 GMT+0000 (Coordinated Universal Time)

1 40143U 14053A 25183.61989121 .00005495 00000+0 23258-3 0 9996 2 40143 97.1980 233.7261 0010908 298.6156 61.3983 15.23524101601705
UTC large
Height (km)
Speed (km/s)
/
Latitude / Longitude
Inclination (degrees)
Orbital Period (minutes)
Azimuth
Elevation
Range (km)
Doppler Factor

Next 0 passes for location: London (51.5072 / 0.1276)

Sorry there are no passes over London.